Location: Kitchener
(43.4500°N, 80.5000°W)
Time: 07:04:27
(UTC-04:00)

Cosmos 1939 Rocket - Visible Passes

Search period start: 28 August 2014 00:00
Search period end: 07 September 2014 00:00
Orbit: 543 x 593 km, 97.6° (Epoch: 25 August)

Date Brightness Start Highest point End Pass type
(mag) Time Alt. Az. Time Alt. Az. Time Alt. Az.
28 Aug 2.9 21:53:05 41° SSE 21:54:29 76° ENE 21:58:40 10° N visible
29 Aug 2.8 21:54:27 44° SSE 21:55:43 78° ENE 21:59:54 10° N visible
30 Aug 2.8 21:55:49 48° SSE 21:56:57 81° ENE 22:01:08 10° N visible
31 Aug 2.8 21:57:12 52° SSE 21:58:11 83° ENE 22:02:22 10° N visible
01 Sep 2.8 21:58:34 56° SSE 21:59:24 86° ENE 22:03:36 10° NNW visible
02 Sep 2.8 21:59:56 62° SSE 22:00:38 88° ENE 22:04:49 10° NNW visible
03 Sep 2.8 22:01:19 67° S 22:01:52 89° WSW 22:06:02 10° NNW visible
04 Sep 2.8 22:02:41 72° S 22:03:05 86° WSW 22:07:15 10° NNW visible
05 Sep 2.8 22:04:03 78° SSW 22:04:18 84° WSW 22:08:28 10° NNW visible
06 Sep 5.1 20:30:29 10° ENE 20:31:05 10° ENE 20:31:40 10° NE visible
06 Sep 2.9 22:05:26 80° SW 22:05:32 81° WSW 22:09:41 10° NNW visible
